User: anonymous
Location: Voyageurs National Park
(48.5020°N, 92.9292°W)
Time: 09:00:11
(UTC-05:00)
Language:

Terra - Orbit

View from above orbital plane
View from above orbital plane
View from above satellite
View from above satellite

Ground track
Ground track

The orbit data is extracted from the following two-line orbital elements,

1 25994U 99068A   14263.07202569  .00000449  00000-0  10956-3 0  6424
2 25994 098.2037 336.4626 0001673 096.2951 263.8445 14.57127311784888
Epoch (UTC): 20 September 2014 01:43:43
Eccentricity: 0.0001673
inclination: 98.2037°
perigee height: 701 km
apogee height: 703 km
right ascension of ascending node: 336.4626°
argument of perigee: 96.2951°
revolutions per day: 14.57127311
mean anomaly at epoch: 263.8445°
orbit number at epoch: 78488

The dashed part of the orbit path shows where the satellite is in the earth's shadow,  

DLR